Location: *
(37.5724°S, 58.0067°E)
Time: 10:25:39
(UTC+00:00)

Genesis I - Pass Details

Date: 26 January 2021
Orbit: 488 x 532 km, 64.5° (Epoch: 05 March)

Event Time Altitude Azimuth Distance (km) Brightness Sun altitude
Exits shadow 21:05:15 18° 173° (S) 1,348 6.0 -33.0°
Drops below altitude 10° 21:06:27 10° 164° (SSE) 1,778 6.7 -32.9°
Sets 21:08:44 0° 156° (SSE) 2,665 7.9 -32.8°
